Weather History for Flint, MI

Change the Weather History Date:

Monday, September 30, 2013

  Actual Average Record
Temperature  
Mean Temperature 60 °F 55 °F  
Max Temperature 72 °F 66 °F 86 °F (2002)
Min Temperature 48 °F 44 °F 30 °F (1993)
Degree Days  
Heating Degree Days 5 10  
Month to date heating degree days 152 165  
Since 1 July heating degree days 174 210  
Cooling Degree Days 0 1  
Month to date cooling degree days 73 49  
Year to date cooling degree days 743 526  
Growing Degree Days 10 (Base 50)    
Moisture  
Dew Point 52 °F    
Average Humidity 67    
Maximum Humidity 93    
Minimum Humidity 41    
Precipitation  
Precipitation 0.00 in 0.11 in 2.24 in (1981)
Month to date precipitation 0.61 3.75  
Year to date precipitation 26.20 24.31  
Snow  
Snow 0.00 in 0.00 in 0.00 in ()
Month to date snowfall 0.0 0.0  
Since 1 July snowfall 0.0 0.0  
Since 1 September snowfall 0.0 0.0  
Snow Depth 0.00 in    
Sea Level Pressure  
Sea Level Pressure 29.99 in    
Wind  
Wind Speed 4 mph (NW)    
Max Wind Speed 13 mph    
Max Gust Speed 25 mph    
Visibility 7 miles    
Events Fog    
T = Trace of Precipitation, MM = Missing Value Source: NWS Daily Summary

Daily Weather History Graph

Daily Weather History Graph

Search for Another Location

Airport:

Trip Planner

Search our weather history database for the weather conditions in past years. The results will help you decide how hot, cold, wet, or windy it might be!

Date:

Astronomy

Sep. 30, 2013 Rise Set
Actual Time 7:31 AM EDT 7:17 PM EDT
Civil Twilight 7:03 AM EDT 7:45 PM EDT
Nautical Twilight 6:30 AM EDT 8:18 PM EDT
Astronomical Twilight 5:56 AM EDT 8:51 PM EDT
Moon 3:01 AM EDT (9/30) 4:52 PM EDT (9/30)
Length of Visible Light 12h 42m
Length of Day
11h 46m
Waning Crescent, 19% of the Moon is Illuminated
Sep 30
Waning Crescent
Oct 4
New
Oct 11
First Quarter
Oct 18
Full
Oct 26
Last Quarter

Hourly Weather History & Observations

Time (EDT) Temp. Dew Point Humidity Pressure Visibility Wind Dir Wind Speed Gust Speed Precip Events Conditions
12:14 AM 59.0 °F 55.4 °F 88% 30.00 in 10.0 mi Calm Calm - N/A   Overcast
12:53 AM 59.0 °F 55.9 °F 90% 30.00 in 10.0 mi NNW 3.5 mph - N/A   Overcast
1:53 AM 55.9 °F 54.0 °F 93% 30.01 in 5.0 mi Calm Calm - N/A   Scattered Clouds
2:08 AM 55.4 °F 53.6 °F 94% 30.01 in 5.0 mi West 4.6 mph - N/A   Mostly Cloudy
2:32 AM 55.4 °F 53.6 °F 94% 30.01 in 1.8 mi West 3.5 mph - N/A   Overcast
2:48 AM 55.4 °F 53.6 °F 94% 30.00 in 3.0 mi Calm Calm - N/A   Overcast
2:53 AM 55.9 °F 54.0 °F 93% 30.00 in 4.0 mi Calm Calm - N/A   Overcast
3:25 AM 55.4 °F 53.6 °F 94% 29.99 in 7.0 mi Calm Calm - N/A   Overcast
3:53 AM 57.0 °F 55.0 °F 93% 30.00 in 1.5 mi NNW 3.5 mph - N/A   Overcast
4:01 AM 57.2 °F 55.4 °F 94% 29.99 in 0.5 mi North 4.6 mph - N/A Fog Fog
4:08 AM 57.2 °F 55.4 °F 94% 29.99 in 0.2 mi NNW 4.6 mph - N/A Fog Fog
4:15 AM 57.2 °F 55.4 °F 94% 30.00 in 0.5 mi NNW 3.5 mph - N/A Fog Fog
4:34 AM 57.2 °F 55.4 °F 94% 30.00 in 0.2 mi North 4.6 mph - N/A Fog Fog
4:53 AM 57.0 °F 55.0 °F 93% 30.01 in 0.2 mi North 4.6 mph - N/A Fog Fog
5:31 AM 55.4 °F 53.6 °F 94% 30.01 in 0.8 mi North 3.5 mph - N/A   Mist
5:36 AM 55.4 °F 53.6 °F 94% 30.00 in 2.0 mi Calm Calm - N/A   Overcast
5:44 AM 55.4 °F 53.6 °F 94% 30.00 in 5.0 mi Calm Calm - N/A   Overcast
5:53 AM 55.0 °F 53.1 °F 93% 30.01 in 7.0 mi Calm Calm - N/A   Overcast
6:07 AM 55.4 °F 53.6 °F 94% 30.00 in 8.0 mi Calm Calm - N/A   Overcast
6:53 AM 55.0 °F 52.0 °F 89% 30.01 in 10.0 mi NNE 3.5 mph - N/A   Overcast
7:53 AM 55.9 °F 52.0 °F 87% 30.03 in 10.0 mi NNE 3.5 mph - N/A   Overcast
8:53 AM 57.0 °F 53.1 °F 87% 30.03 in 10.0 mi Calm Calm - N/A   Overcast
9:53 AM 59.0 °F 52.0 °F 78% 30.03 in 10.0 mi East 4.6 mph - N/A   Overcast
10:53 AM 62.1 °F 52.0 °F 70% 30.01 in 10.0 mi East 5.8 mph - N/A   Overcast
11:53 AM 64.9 °F 51.1 °F 61% 29.99 in 10.0 mi Variable 4.6 mph - N/A   Clear
12:53 PM 66.9 °F 50.0 °F 54% 29.99 in 10.0 mi South 8.1 mph - N/A   Clear
1:53 PM 68.0 °F 50.0 °F 52% 29.98 in 10.0 mi WSW 6.9 mph - N/A   Mostly Cloudy
2:53 PM 71.1 °F 50.0 °F 47% 29.95 in 10.0 mi West 9.2 mph - N/A   Mostly Cloudy
3:53 PM 71.1 °F 46.9 °F 42% 29.94 in 10.0 mi SSW 11.5 mph - N/A   Partly Cloudy
4:53 PM 71.1 °F 48.9 °F 45% 29.93 in 10.0 mi West 5.8 mph - N/A   Mostly Cloudy
5:53 PM 71.1 °F 48.0 °F 44% 29.93 in 10.0 mi Variable 4.6 mph - N/A   Mostly Cloudy
6:53 PM 66.0 °F 46.0 °F 48% 29.94 in 10.0 mi WSW 3.5 mph - N/A   Clear
7:53 PM 60.1 °F 46.9 °F 62% 29.94 in 10.0 mi South 3.5 mph - N/A   Clear
8:53 PM 59.0 °F 48.9 °F 69% 29.95 in 10.0 mi South 5.8 mph - N/A   Clear
9:53 PM 54.0 °F 48.0 °F 80% 29.96 in 10.0 mi South 4.6 mph - N/A   Clear
10:53 PM 48.9 °F 45.0 °F 86% 29.96 in 10.0 mi Calm Calm - N/A   Clear
11:53 PM 51.1 °F 48.0 °F 89% 29.96 in 10.0 mi Calm Calm - N/A   Clear